Location: Unspecified
(0.0000°N, 0.0000°E)
Time: 06:31:09
(UTC+00:00)

A-11 Canister half - Pass Details

Date: 24 November 2019
Orbit: 1515 x 1685 km, 47.2° (Epoch: 10 December)

Event Time Altitude Azimuth Distance (km) Brightness Sun altitude
Rises 13:49:38 0° 229° (SW) 4,716 12.1 53.6°
Reaches altitude 10° 13:52:43 10° 233° (SW) 3,751 11.9 53.0°
Maximum altitude 14:02:01 58° 310° (NW) 1,820 10.4 51.0°
Drops below altitude 10° 14:11:41 10° 27° (NNE) 3,875 10.9 49.0°
Sets 14:14:57 0° 31° (NNE) 4,880 11.3 48.3°
